Time,TemperatureF,DewpointF,PressureIn,WindDirection,WindDirectionDegrees,WindSpeedMPH,WindSpeedGustMPH,Humidity,HourlyPrecipIn,Conditions,Clouds,dailyrainin,SoftwareType,DateUTC
2013-07-11 00:00:00,57.0,23.0,-100.00,North,-999,-999.0,-999.0,27,-99.99,,,0.01,,2013-07-11 07:00:00,
2013-07-11 01:00:00,56.0,23.0,-100.00,SSW,213,6.0,11.0,28,-99.99,,,0.00,,2013-07-11 08:00:00,
2013-07-11 02:00:00,54.0,25.0,-100.00,SW,214,5.0,9.0,32,-99.99,,,0.00,,2013-07-11 09:00:00,
2013-07-11 02:53:00,54.0,25.0,-100.00,SW,214,5.0,9.0,32,-99.99,,,0.00,,2013-07-11 09:53:00,
2013-07-11 03:00:00,54.0,27.0,-100.00,South,180,6.0,9.0,34,-99.99,,,0.00,,2013-07-11 10:00:00,
2013-07-11 04:00:00,52.0,29.0,-100.00,West,266,3.0,10.0,42,-99.99,,,0.00,,2013-07-11 11:00:00,
2013-07-11 05:00:00,49.0,34.0,-100.00,SW,233,2.0,4.0,55,-99.99,,,-99.99,,2013-07-11 12:00:00,
2013-07-11 05:57:00,49.0,34.0,-100.00,SW,233,2.0,4.0,55,-99.99,,,-99.99,,2013-07-11 12:57:00,
2013-07-11 08:00:00,54.0,18.0,-100.00,SSE,167,5.0,8.0,24,-99.99,,,0.01,,2013-07-11 15:00:00,
2013-07-11 08:48:00,54.0,18.0,-100.00,SSE,167,5.0,8.0,24,-99.99,,,0.01,,2013-07-11 15:48:00,
2013-07-11 08:57:00,54.0,18.0,-100.00,SSE,167,5.0,8.0,24,-99.99,,,0.01,,2013-07-11 15:57:00,
2013-07-11 09:00:00,56.0,24.0,-100.00,SSE,163,3.0,6.0,29,-99.99,,,0.01,,2013-07-11 16:00:00,
2013-07-11 09:56:00,56.0,24.0,-100.00,SSE,163,3.0,6.0,29,-99.99,,,0.01,,2013-07-11 16:56:00,
2013-07-11 10:00:00,60.0,25.0,-100.00,SSW,194,2.0,5.0,26,-99.99,,,0.02,,2013-07-11 17:00:00,
2013-07-11 11:00:00,60.0,26.0,-100.00,South,190,3.0,7.0,27,-99.99,,,0.01,,2013-07-11 18:00:00,
2013-07-11 11:56:00,60.0,26.0,-100.00,South,190,3.0,7.0,27,-99.99,,,0.01,,2013-07-11 18:56:00,
2013-07-11 12:00:00,61.0,17.0,-100.00,SSE,155,4.0,8.0,18,-99.99,,,0.01,,2013-07-11 19:00:00,
2013-07-11 16:00:00,60.0,17.0,-100.00,SSE,153,6.0,10.0,19,-99.99,,,-99.99,,2013-07-11 23:00:00,
2013-07-11 16:58:00,60.0,17.0,-100.00,SSE,153,6.0,10.0,19,-99.99,,,-99.99,,2013-07-11 23:58:00,
2013-07-11 17:00:00,61.0,25.0,-100.00,SW,236,3.0,5.0,25,-99.99,,,-99.99,,2013-07-12 00:00:00,
2013-07-11 17:57:00,61.0,25.0,-100.00,SW,236,3.0,5.0,25,-99.99,,,-99.99,,2013-07-12 00:57:00,
2013-07-11 18:00:00,59.0,22.0,-100.00,South,188,3.0,6.0,23,-99.99,,,-99.99,,2013-07-12 01:00:00,
2013-07-11 18:56:00,59.0,22.0,-100.00,South,188,3.0,6.0,23,-99.99,,,-99.99,,2013-07-12 01:56:00,
2013-07-11 19:00:00,58.0,20.0,-100.00,North,-999,-999.0,-999.0,23,-99.99,,,-99.99,,2013-07-12 02:00:00,
2013-07-11 20:00:00,54.0,26.0,-100.00,South,179,3.0,5.0,33,-99.99,,,-99.99,,2013-07-12 03:00:00,
2013-07-11 21:00:00,49.0,27.0,-100.00,SE,143,2.0,4.0,43,-99.99,,,-99.99,,2013-07-12 04:00:00,
2013-07-11 21:53:00,49.0,27.0,-100.00,SE,143,2.0,4.0,43,-99.99,,,-99.99,,2013-07-12 04:53:00,
2013-07-11 22:00:00,47.0,26.0,-100.00,South,182,3.0,4.0,44,-99.99,,,-99.99,,2013-07-12 05:00:00,
2013-07-11 22:53:00,47.0,26.0,-100.00,South,182,3.0,4.0,44,-99.99,,,-99.99,,2013-07-12 05:53:00,
2013-07-11 23:00:00,48.0,21.0,-100.00,SSE,161,3.0,5.0,34,-99.99,,,-99.99,,2013-07-12 06:00:00,
2013-07-11 23:52:00,48.0,21.0,-100.00,SSE,161,3.0,5.0,34,-99.99,,,-99.99,,2013-07-12 06:52:00,